DateTimeUTC,F1_A11,F1_S11,BsB_S11,BsG_S11,BsR_S11,BbsB_S11,BbsG_S11,BbsR_S11,BaB_A11,BaG_A11,BaR_A11,Tu_S11,T_S11,Uu_S11,U_S11,P_S11,T1_A11
2021-06-22T03:00:00Z,00000200,20000000,,,,,,,-000.16,0000.24,0000.01,17.8,24.8,01.7,01.1,0669.1,31.0
2021-06-22T03:01:00Z,00000200,20000000,,,,,,,0000.28,0000.30,0000.60,17.8,24.8,01.7,01.1,0669.1,31.1
2021-06-22T03:02:00Z,00000200,20000000,,,,,,,0000.65,0000.03,0000.12,17.8,24.8,01.7,01.1,0669.1,31.1
2021-06-22T03:03:00Z,00000200,60000000,,,,,,,0021.49,0019.87,0015.33,17.9,24.8,01.7,01.1,0669.1,31.1
2021-06-22T03:04:00Z,00000200,41000000,0002.29,0001.71,0000.94,0000.61,0000.57,-000.18,0032.35,0029.20,0022.83,18.3,24.8,01.7,01.2,0670.1,31.1
2021-06-22T03:05:00Z,00000200,01000000,0002.55,0001.57,0001.33,0000.61,0000.49,0000.50,0032.13,0029.94,0023.51,18.3,24.8,01.8,01.2,0670.2,31.1
2021-06-22T03:06:00Z,00000200,01000000,0002.68,0001.53,0000.65,0000.92,0000.65,0000.12,0030.64,0028.01,0021.85,18.3,24.8,01.8,01.2,0670.2,31.1
2021-06-22T03:07:00Z,00000200,01000000,0003.39,0002.06,0000.48,0000.01,0000.58,0000.32,0025.27,0022.85,0018.32,18.3,24.7,01.7,01.2,0670.2,31.1
2021-06-22T03:08:00Z,00000200,01000000,0002.48,0001.82,0000.97,0000.42,0000.64,0000.23,0027.24,0025.19,0019.64,18.2,24.7,01.8,01.2,0670.2,31.1
2021-06-22T03:09:00Z,00000200,01000000,0001.53,0001.89,0000.63,0000.48,0000.59,0000.29,0026.03,0023.48,0018.75,18.1,24.7,01.7,01.2,0670.2,31.0
2021-06-22T03:10:00Z,00000200,01000000,0002.27,0001.72,0000.65,0000.13,0000.43,0000.20,0025.61,0023.40,0018.28,18.1,24.6,01.8,01.2,0670.2,31.0
2021-06-22T03:11:00Z,00000200,01000000,0002.64,0001.66,0000.53,0000.52,0000.59,0000.13,0028.75,0026.06,0020.75,18.0,24.6,01.8,01.2,0670.1,31.0
2021-06-22T03:12:00Z,00000200,01000000,0002.08,0001.46,0000.92,0000.41,0000.44,0000.38,0025.90,0023.61,0018.70,18.0,24.6,01.8,01.2,0670.2,31.0
2021-06-22T03:13:00Z,00000200,01000000,0002.10,0001.27,0000.63,0000.37,0000.51,-000.10,0025.54,0023.31,0018.37,18.0,24.5,01.8,01.2,0670.1,31.0
2021-06-22T03:14:00Z,00000200,01000000,0002.29,0001.60,0000.81,0000.39,0000.65,0000.35,0028.61,0025.88,0020.34,18.0,24.5,01.8,01.2,0670.1,31.0
2021-06-22T03:15:00Z,00000200,01000000,0002.36,0001.79,0000.93,0000.52,0000.48,0000.24,0025.84,0024.03,0018.92,18.0,24.5,01.8,01.2,0670.2,31.0
2021-06-22T03:16:00Z,00000200,01000000,0001.91,0001.35,0000.93,0001.00,0000.33,0000.17,0024.05,0022.08,0016.76,18.1,24.5,01.8,01.2,0670.2,31.0
2021-06-22T03:17:00Z,00000200,01000000,0002.78,0002.16,0000.92,-000.15,0000.74,0000.36,0032.82,0029.97,0023.75,18.1,24.6,01.7,01.1,0670.2,31.0
2021-06-22T03:18:00Z,00000200,01000000,0002.67,0002.09,0000.94,0000.82,0000.72,0000.19,0035.47,0032.59,0025.99,18.2,24.6,01.7,01.1,0670.2,31.1
2021-06-22T03:19:00Z,00000200,01000000,0002.87,0002.07,0001.08,0000.45,0000.44,-000.02,0040.09,0036.47,0028.90,18.3,24.7,01.6,01.1,0670.2,31.1
2021-06-22T03:20:00Z,00000200,01000000,0002.42,0001.91,0000.89,0000.12,0000.53,0000.15,0036.20,0033.09,0025.95,18.3,24.7,01.7,01.1,0670.2,31.1
2021-06-22T03:21:00Z,00000200,01000000,0002.04,0001.76,0001.27,0000.73,0000.26,0000.38,0029.08,0026.56,0021.01,18.3,24.7,01.6,01.1,0670.2,31.1
2021-06-22T03:22:00Z,00000200,01000000,0002.43,0001.80,0000.92,0000.64,0000.81,0000.30,0031.85,0029.02,0022.79,18.3,24.7,01.7,01.1,0670.2,31.1
2021-06-22T03:23:00Z,00000200,01000000,0002.68,0001.90,0000.86,0001.05,0000.33,0000.43,0028.76,0026.28,0021.00,18.2,24.7,01.5,01.0,0670.2,31.1
2021-06-22T03:24:00Z,00000200,01000000,0002.18,0001.82,0000.84,0001.34,0000.38,0000.41,0026.90,0024.79,0019.23,18.2,24.7,01.7,01.1,0670.2,31.1
2021-06-22T03:25:00Z,00000200,01000000,0001.26,0001.12,0000.85,0000.47,0000.30,0000.15,0022.49,0020.31,0016.34,18.1,24.6,01.6,01.1,0670.2,31.0
2021-06-22T03:26:00Z,00000200,01000000,0001.92,0001.51,0001.01,0001.11,0000.51,0000.42,0021.28,0019.58,0015.35,18.1,24.6,01.6,01.1,0670.2,31.1
2021-06-22T03:27:00Z,00000200,01000000,0001.47,0001.48,0000.68,-000.09,0000.47,0000.25,0015.63,0013.74,0010.82,18.0,24.6,01.7,01.1,0670.2,31.0
2021-06-22T03:28:00Z,00000200,01000000,0001.07,0001.26,0000.30,0000.31,0000.30,-000.06,0008.91,0008.53,0006.67,18.0,24.5,01.7,01.1,0670.2,31.0
2021-06-22T03:29:00Z,00000200,01000000,0000.98,0001.01,0000.58,0000.23,0000.24,0000.35,0004.74,0004.51,0003.63,18.0,24.5,01.8,01.2,0670.2,31.0
2021-06-22T03:30:00Z,00000200,01000000,0001.18,0000.92,0000.37,0000.53,0000.56,-000.08,0004.63,0004.11,0003.14,18.0,24.5,01.7,01.2,0670.2,31.0
2021-06-22T03:31:00Z,00000200,01000000,0001.20,0001.14,0000.01,-000.08,-000.02,-000.09,0003.35,0003.04,0002.72,18.1,24.5,01.7,01.2,0670.2,31.1
2021-06-22T03:32:00Z,00000200,01000000,0000.77,0000.67,0000.51,0000.49,0000.21,0000.41,0001.97,0001.95,0001.39,18.2,24.6,01.6,01.1,0670.3,31.1
2021-06-22T03:33:00Z,00000200,01000000,0001.11,0000.85,0000.28,0000.39,0000.20,0000.13,0003.01,0002.74,0002.20,18.3,24.6,01.6,01.1,0670.3,31.1
2021-06-22T03:34:00Z,00000200,01000000,0000.48,0001.00,0000.37,0000.19,0000.01,0000.16,0003.14,0003.17,0002.03,18.3,24.7,01.6,01.1,0670.2,31.1
2021-06-22T03:35:00Z,00000200,01000000,0000.93,0000.38,0000.45,0000.52,0000.76,0000.06,0003.55,0002.86,0002.48,18.3,24.7,01.6,01.1,0670.2,31.1
2021-06-22T03:36:00Z,00000200,01000000,0000.90,0000.93,0000.54,0000.64,0000.33,0000.06,0003.06,0002.75,0002.29,18.3,24.7,01.6,01.1,0670.3,31.1
2021-06-22T03:37:00Z,00000200,01000000,0000.71,0000.72,0000.52,0000.32,0000.39,-000.10,0002.53,0002.46,0001.85,18.2,24.7,01.7,01.1,0670.3,31.1
2021-06-22T03:38:00Z,00000200,01000000,0000.62,0001.23,0000.42,0000.51,0000.20,0000.12,0003.29,0003.32,0002.27,18.2,24.6,01.6,01.1,0670.3,31.0
2021-06-22T03:39:00Z,00000200,01000000,0001.28,0000.54,0000.30,0000.65,0000.41,0000.09,0002.76,0001.87,0001.63,18.1,24.6,01.6,01.1,0670.2,31.0
2021-06-22T03:40:00Z,00000200,01000000,0000.92,0000.96,0000.24,-000.03,0000.26,0000.05,0000.79,0001.17,0000.96,18.1,24.6,01.6,01.1,0670.3,31.0
2021-06-22T03:41:00Z,00000200,01000000,0000.94,0001.03,0000.33,0000.16,0000.33,-000.17,0001.50,0001.05,0000.81,18.0,24.5,01.6,01.1,0670.2,31.0
2021-06-22T03:42:00Z,00000200,01000000,0000.50,0001.14,0000.06,0000.54,0000.13,0000.02,0000.76,0000.57,0000.55,18.0,24.5,01.7,01.1,0670.2,31.0
2021-06-22T03:43:00Z,00000200,01000000,0001.69,0000.83,0000.35,-000.23,0000.17,-000.11,0000.91,0000.79,0000.79,17.9,24.5,01.6,01.1,0670.2,31.0
2021-06-22T03:44:00Z,00000200,01000000,0000.86,0000.94,0000.31,-000.08,0000.37,0000.04,0000.49,0001.01,0000.73,17.9,24.5,01.7,01.2,0670.2,31.0
2021-06-22T03:45:00Z,00000200,01000000,0000.53,0000.79,-000.03,0000.36,0000.05,-000.00,0001.21,0000.70,0000.51,18.0,24.5,01.7,01.2,0670.2,31.0
2021-06-22T03:46:00Z,00000200,01000000,0000.61,0000.86,0000.65,0000.13,0000.42,0000.10,0000.85,0001.16,0000.59,18.0,24.5,01.6,01.1,0670.3,31.0
2021-06-22T03:47:00Z,00000200,01000000,0001.40,0000.91,0000.36,-000.00,0000.06,0000.11,0001.31,0001.14,0001.02,18.1,24.5,01.6,01.1,0670.3,31.0
2021-06-22T03:48:00Z,00000200,01000000,0000.99,0000.88,0000.55,0000.50,0000.13,-000.24,0003.92,0003.90,0003.03,18.2,24.6,01.7,01.1,0670.3,31.1
2021-06-22T03:49:00Z,00000200,01000000,0001.57,0001.30,0000.28,0000.72,0000.50,-000.24,0007.95,0007.04,0005.35,18.3,24.6,01.7,01.1,0670.3,31.1
2021-06-22T03:50:00Z,00000200,01000000,0001.43,0000.45,0000.36,0000.40,0000.17,-000.20,0005.50,0004.85,0004.07,18.4,24.7,01.7,01.1,0670.3,31.1
2021-06-22T03:51:00Z,00000200,01000000,0001.83,0000.96,0000.23,0000.21,0000.51,-000.10,0003.31,0002.95,0002.30,18.4,24.7,01.7,01.1,0670.3,31.1
2021-06-22T03:52:00Z,00000200,01000000,0000.81,0000.86,0000.32,0000.10,0000.45,0000.13,0001.84,0002.01,0001.81,18.4,24.7,01.6,01.1,0670.3,31.1
2021-06-22T03:53:00Z,00000200,01000000,0001.36,0000.70,0000.41,0000.19,0000.36,-000.05,0000.76,0000.41,0000.38,18.3,24.7,01.7,01.2,0670.3,31.1
2021-06-22T03:54:00Z,00000200,01000000,0001.11,0000.96,0000.49,0000.50,0000.31,0000.00,0000.96,0000.83,0000.38,18.3,24.7,01.8,01.2,0670.3,31.1
2021-06-22T03:55:00Z,00000200,01000000,0001.07,0000.97,0000.14,0000.30,0000.23,-000.26,0001.21,0001.05,0000.65,18.2,24.6,01.7,01.2,0670.3,31.1
2021-06-22T03:56:00Z,00000200,01000000,0001.21,0001.01,0000.18,0000.22,0000.23,0000.16,0000.35,0000.91,0000.67,18.1,24.6,01.7,01.1,0670.3,31.0
2021-06-22T03:57:00Z,00000200,41000000,,,,,,,0001.02,0000.45,0000.81,18.1,24.6,01.2,00.8,0670.2,31.0
2021-06-22T03:58:00Z,00000200,61000000,,,,,,,0000.22,0000.40,0000.17,17.8,24.7,01.7,01.1,0669.3,31.1
2021-06-22T03:59:00Z,00000200,20000000,,,,,,,0000.23,0000.31,0000.25,17.8,24.8,01.7,01.1,0669.2,31.0
